User: anonymous   Login
Location: Unspecified
(0.0000°N, 0.0000°E)
Time: 08:59:46
(UTC+00:00)
Language:

ONEWEB-0217 - Orbit

View from above orbital plane
View from above orbital plane
View from above satellite
View from above satellite

Ground track
Ground track

The orbit is defined by the following mean orbital elements,

1 48245U          26145.38011470 +.00000000 +00000-0 +12996-3 0 00008
2 48245  87.8948 294.2436 0001551 105.6001 254.5300 13.14501773    05
Epoch (UTC): 25 May 2026 09:07:21
Eccentricity: 0.0001551
inclination: 87.8948°
perigee height: 1205 km
apogee height: 1207 km
right ascension of ascending node: 294.2436°
argument of perigee: 105.6001°
revolutions per day: 13.14501773
mean anomaly at epoch: 254.5300°

The dashed part of the orbit path shows where the satellite is in the earth's shadow,  

DLR